User: anonymous   Login
Location: Muenchen
(48.1800°N, 11.5800°E)
Time: 21:58:36
(UTC+02:00)
Language:

Sich 1 Rocket - Orbit

View from above orbital plane
View from above orbital plane
View from above satellite
View from above satellite

Ground track
Ground track

The orbit data is extracted from the following two-line orbital elements,

1 23659U 95046C   18173.95685015  .00000044  00000-0  27398-5 0  9990
2 23659  82.5301 321.4115 0027202 100.7046  19.0557 14.78284202229327
Epoch (UTC): 22 June 2018 22:57:51
Eccentricity: 0.0027202
inclination: 82.5301°
perigee height: 615 km
apogee height: 654 km
right ascension of ascending node: 321.4115°
argument of perigee: 100.7046°
revolutions per day: 14.78284202
mean anomaly at epoch: 19.0557°
orbit number at epoch: 22932

The dashed part of the orbit path shows where the satellite is in the earth's shadow,  

DLR